Regional Weather Roundup
Issued by NWS

Home | Current Version | Previous Version | Graphics & Text | Print | Product List | Glossary On
Versions: 1 2 3 4 5 6 7 8 9 10 11 12 13 14 15 16 17 18 19 20 21 22 23 24 25 26 27 28
000
ASUS45 KTFX 300710
RWRMT
MONTANA REGIONAL WEATHER ROUNDUP
NATIONAL WEATHER SERVICE GREAT FALLS MT
100 AM MDT SAT JUL 30 2016

NOTE: "FAIR" INDICATES FEW OR NO CLOUDS BELOW 12000 FEET WITH NO
SIGNIFICANT WEATHER AND/OR OBSTRUCTIONS TO VISIBILITY.

MTZ001>007-043-300800-
WEST OF THE DIVIDE

CITY           SKY/WX    TMP DP  RH WIND       PRES   REMARKS
KALISPELL      CLEAR     60  54  80 VRB6      29.83F
MISSOULA       CLEAR     67  46  47 CALM      29.88S
BUTTE          CLEAR     62  41  46 SE3       30.04F
MULLAN PASS    CLEAR     69  41  36 SW6       30.05F
DEER LODGE       N/A     61  46  59 CALM      30.00F
EUREKA           N/A     72  52  49 SE3       29.81S
HAMILTON         N/A     66  48  52 CALM      29.91S
LIBBY            N/A     66  48  52 CALM      29.81F
PLAINS           N/A     67  52  58 CALM      29.85F
RONAN            N/A     59  53  80 MISG      29.91S
$$

MTZ008-052>055-300800-
SOUTHWEST MONTANA

CITY           SKY/WX    TMP DP  RH WIND       PRES   REMARKS
BOZEMAN        CLEAR     66  50  56 W7        29.97F
DILLON         CLEAR     62  42  47 S9        30.00S
W YELLOWSTONE  CLEAR     50  37  62 SW3       30.14S
ENNIS          CLEAR     66  39  37 CALM      30.06F
THREE FORKS      N/A     62  24  23 CALM      29.96F
TWIN BRIDGES     N/A     69  39  33 N2        29.98F
$$

MTZ009-010-012-014-046-048-049-054-300800-
EAST SLOPES AND CENTRAL MONTANA

CITY           SKY/WX    TMP DP  RH WIND       PRES   REMARKS
CUT BANK         N/A     64  51  62 S6        29.91F
GREAT FALLS    CLEAR     65  48  54 SE5       29.90F
MALMSTROM AFB  CLEAR     65  51  58 S10       29.91F
HELENA         CLEAR     71  46  40 W7        29.92F
CHOTEAU          N/A     68  46  45 W5        29.95F
$$

MTZ011-013-016-021-045-047-050-051-300800-
NORTH CENTRAL MONTANA

CITY           SKY/WX    TMP DP  RH WIND       PRES   REMARKS
HAVRE          CLEAR     68  54  60 CALM      29.87F
N BAR RANCH      N/A     55  48  76 SW5       30.05F
CHINOOK          N/A     64  57  77 NE5       29.88F
$$

MTZ017>020-022>027-061-062-300800-
NORTHEAST MONTANA

CITY           SKY/WX    TMP DP  RH WIND       PRES   REMARKS
GLASGOW        CLEAR     62  54  74 E8        29.92F
JORDAN           N/A     63  57  81 CALM      29.94F
SIDNEY         CLEAR     58  46  64 NW3       29.94S
WOLF POINT     CLEAR     62  55  77 E3        29.93F
PLENTYWOOD       N/A     63  55  77 SE3       29.95F
POPLAR           N/A     61  54  77 CALM      29.93F
$$

MTZ028>42-056>058-300800-
SOUTHCENTRAL AND SOUTHEAST MONTANA

CITY           SKY/WX    TMP DP  RH WIND       PRES   REMARKS
BAKER          CLEAR     60  56  86 S3        29.98F
BILLINGS       CLEAR     71  49  45 N3        29.96F
LIVINGSTON     CLEAR     68  47  46 E13       30.00S
MILES CITY     CLEAR     67  54  63 NE5       29.94F
FORSYTH          N/A     66  54  63 CALM      29.94S
LAUREL           N/A     67  48  50 CALM      29.96F
ROUNDUP          N/A     66  50  56 CALM      29.89F
$$

REGIONAL REPORTS...DAKOTAS

CITY           SKY/WX    TMP DP  RH WIND       PRES   REMARKS
WILLISTON      CLEAR     64  57  78 E3        29.94F
MINOT          PTCLDY    67  61  81 SE5       29.94F
DICKINSON      CLEAR     58  56  93 S7        29.93F
CROSBY           N/A     57  57 100 S8        29.96F
WATFORD CITY     N/A    N/A N/A N/A MISG        N/A
BISMARCK       RAIN      66  62  87 SE7       29.95F FOG
GRAND FORKS    CLEAR     64  57  78 SE6       29.97F
FARGO          CLOUDY    71  61  70 S8        29.99F
BUFFALO SD       N/A     67  56  67 S3        29.91F
RAPID CITY     CLEAR     56  53  90 E3        29.99F
$$

REGIONAL REPORTS...WYOMING/IDAHO/WASHINGTON

CITY           SKY/WX    TMP DP  RH WIND       PRES   REMARKS
GILLETTE       PTCLDY    64  57  78 S6        30.03F
SHERIDAN       CLEAR     62  49  62 SW5       30.00F
BUFFALO WY     CLOUDY    63  49  60 SW3       30.07F
CODY           CLEAR     64  50  59 S6        30.06F
YELLOWSTONE LA   N/A     48  40  73 CALM      30.25S
IDAHO FALLS    CLEAR     79  39  23 S13       29.92F
SALMON         CLEAR     66  45  45 CALM      29.91S
BOISE          CLEAR     79  35  20 SE10      29.82R
SPOKANE        CLEAR     77  43  29 SW8       29.77F
$$

REGIONAL REPORTS...ALBERTA

CITY           SKY/WX    TMP DP  RH WIND       PRES   REMARKS
EDMONTON         N/A     59  55  88 W15G33    29.86R
CALGARY        MOCLDY    63  54  72 S5        29.83F
LETHBRIDGE     CLEAR     59  55  88 SW12G17   29.83F
MEDICINE HAT   CLEAR     63  54  72 SE5       29.84F
WATERTON GATE    N/A     59  50  72 S8          N/A
CARDSTON         N/A     64  52  63 SE5         N/A
MILK RIVER       N/A     61  54  77 S7          N/A
ONEFOUR          N/A     63  52  67 E10         N/A
$$

REGIONAL REPORTS...SASKATCHEWAN

CITY           SKY/WX    TMP DP  RH WIND       PRES   REMARKS
SWIFT CURRENT  CLEAR     59  57  94 S8        29.91F
REGINA         PTCLDY    59  57  94 E7        29.90F
SASKATOON      CLEAR     61  61 100 S6        29.86F
CYPRESS HILLS    N/A     59  52  77 SE5         N/A
VAL MARIE        N/A     55  52  88 E3          N/A
ROCKGLEN         N/A     59  54  82 S7          N/A
ASSINIBOIA       N/A     61  59  94 S5          N/A
$$




USA.gov is the U.S. government's official web portal to all federal, state and local government web resources and services.